Voltar ao catálogo

STARLINK-34142

AtivoComunicaçõesVLEO
NORAD 63957·PAYLOAD·🇺🇸 United States

Lançado May 13, 2025 de Cape Canaveral Space Force Station

Loading…

Próximas Passagens (próximas 24 horas)

TLE

AtualizadoSource: CelesTrak SupGP

Época: Sep 14, 2026, 21:31 UTC

1 63957C 25099F   26257.89701389  .00000935  00000+0  33899-4 0  2571
2 63957  43.0015 187.8859 0001063 263.3750 351.9097 15.27562381    12

Acompanhe STARLINK-34142 em tempo real com AllMySat

Download on the App Store